Location: Newark
(48.1500°N, 2.9667°W)
Time: 01:46:47
(UTC+00:00)

A-11 Canister half - Pass Details

Date: 21 January 2020
Orbit: 1524 x 1684 km, 47.3° (Epoch: 21 February)

Event Time Altitude Azimuth Distance (km) Brightness Sun altitude
Rises 17:38:38 0° 204° (SSW) 4,664 12.3 -7.6°
Reaches altitude 10° 17:42:02 10° 195° (SSW) 3,693 11.5 -8.1°
Maximum altitude 17:49:57 33° 136° (SE) 2,397 9.8 -9.4°
Enters shadow 17:57:27 12° 80° (E) 3,624 10.3 -10.6°
Drops below altitude 10° 17:58:03 10° 78° (ENE) 3,789 - -10.7°
Sets 18:01:34 0° 69° (ENE) 4,800 - -11.2°
